FENGYUN 1C DEB, 37053

Orbit data source: Space-Track

FENGYUN 1C DEB, 37053 is space debris in SSO originally from a launch on Mon, 10 May 1999 UTC launched from the Taiyaun Space Center, China (TSC). Fengyun 1C debris stems from the Chinese weather satellite Fengyun-1C, which was intentionally destroyed by a Chinese anti-satellite missile in 2007. This event dramatically increased the amount of space debris, with thousands of trackable fragments posing hazards to satellites and human spaceflight. The Fengyun 1C debris cloud has become a focal point in discussions about space sustainability and the need for international regulations to prevent the creation of new debris.

Loading next visibility...
Identifier
37053, 1999-025EEM
Orbit
SSO
Country
Flag of CNCN / PRC
Related business
Manufacturer
Unknown
Mission
Spacecraft
Bus & Motor
Unknown
Mass
Unknown
Launch date (UTC)
1999-05-10 (27 years ago)
Launch vehicle
Unknown
Launch site
Taiyaun Space Center, China (TSC)
Object type
Payload
Rocket body
Debris
Shape & HBR
Unknown shape, 0.1 m
Radar Cross Section
Small (<0.1 m²)

Expand to show TLE details & history
Last TLE update: 1 day ago

TLE from 1 day ago
0 FENGYUN 1C DEB
1 37053U 99025EEM 26207.15402867  .00006045  00000-0  13565-2 0  9990
2 37053  99.1546 339.3872 0040358 211.1356 274.1025 14.56475812683166
Epoch: 2026-07-26T03:41Z
TLE epoch observation values (Epoch: 2026-07-26T03:41:48.077Z)
Latitude
54.28859°
Longitude
172.96429°
Altitude
711.557 km
Speed
7.506 km/s
True Right ascension
11h 29m 04s
True Declination
54° 07' 28"
Sunlit
Object was in daylight at epoch
Visualization orbit readout
Latitude
Unknown
Longitude
Unknown
Altitude
Unknown
Speed
Unknown
Apparent Right ascension
Unknown
Apparent Declination
Unknown
Sunlit
N/A
Visualization observer readout
Local Sidereal Time
01:16:05
Azimuth
Unknown
Elevation
Unknown
Doppler factor
Unknown
Orbital elements
Apogee altitude
730.281 km
Perigee altitude
673.136 km
Semi-major axis
7,079.845 km
Eccentricity
0.00404
Inclination
99.1546°
RAAN
339.3872°
Arg. of periapsis
211.1356°
True anomaly
273.64105°
Mean anomaly
274.1025°
Eccentric anomaly
273.87179°
Mean motion
3.64341 °/min
Orbital period
98.81 mins
BSTAR
0.0013565
Loading maneuver chart data...
Computing Atmospheric mass density...

Documentation

Showing up to 5 results
|